,,Stat5,,Stat1,,Stat2,,Stat3,,Stat4,,Wind1,,Wind1
time,status,PA1M_AVG,status,PR1M_SUM,status,RH1M_AVG,status,SR1M_AVG,status,TA1M_AVG,status,W1dAve1m,status,W1sAve1m
2000-07-06, 00:00:00,VALID,917.675,VALID,0,VALID,96.4245,VALID,0.0169808,VALID,18.8213,VALID,106,VALID,0.0817145
2000-07-06, 00:01:00,VALID,917.687,VALID,0,VALID,96.5135,VALID,0.0169808,VALID,18.7984,VALID,19,VALID,0.245975
2000-07-06, 00:02:00,VALID,917.693,VALID,0,VALID,96.572,VALID,-0.0169808,VALID,18.8056,VALID,29,VALID,0
2000-07-06, 00:03:00,VALID,917.697,VALID,0,VALID,96.5987,VALID,0,VALID,18.792,VALID,131,VALID,0.00108507
2000-07-06, 00:04:00,VALID,917.684,VALID,0,VALID,96.5211,VALID,0.0169808,VALID,18.8058,VALID,132,VALID,0
2000-07-06, 00:05:00,VALID,917.686,VALID,0,VALID,96.3965,VALID,0.0509425,VALID,18.7597,VALID,131,VALID,0
2000-07-06, 00:06:00,VALID,917.667,VALID,0,VALID,96.4436,VALID,0.0169808,VALID,18.7241,VALID,131,VALID,0
2000-07-06, 00:07:00,VALID,917.658,VALID,0,VALID,96.5389,VALID,0.0169808,VALID,18.7405,VALID,128,VALID,0
2000-07-06, 00:08:00,VALID,917.634,VALID,0,VALID,96.4906,VALID,0.0169808,VALID,18.7343,VALID,128,VALID,0
2000-07-06, 00:09:00,VALID,917.642,VALID,0,VALID,96.5021,VALID,0.0169808,VALID,18.7048,VALID,129,VALID,0
2000-07-06, 00:10:00,VALID,917.635,VALID,0,VALID,96.6203,VALID,0.0169808,VALID,18.7214,VALID,136,VALID,0
2000-07-06, 00:11:00,VALID,917.644,VALID,0,VALID,96.5987,VALID,-0.0339617,VALID,18.7278,VALID,136,VALID,0
2000-07-06, 00:12:00,VALID,917.641,VALID,0,VALID,96.5479,VALID,-0.0509425,VALID,18.7315,VALID,136,VALID,0
2000-07-06, 00:13:00,VALID,917.628,VALID,0,VALID,96.5911,VALID,-0.0339617,VALID,18.7315,VALID,136,VALID,0
2000-07-06, 00:14:00,VALID,917.638,VALID,0,VALID,96.6089,VALID,-0.0339617,VALID,18.7544,VALID,135,VALID,0
2000-07-06, 00:15:00,VALID,917.62,VALID,0,VALID,96.5847,VALID,-0.0169808,VALID,18.7574,VALID,135,VALID,0
2000-07-06, 00:16:00,VALID,917.629,VALID,0,VALID,96.5479,VALID,-0.0509425,VALID,18.7449,VALID,135,VALID,0
2000-07-06, 00:17:00,VALID,917.638,VALID,0,VALID,96.4715,VALID,-0.0169808,VALID,18.7186,VALID,135,VALID,0
2000-07-06, 00:18:00,VALID,917.652,VALID,0,VALID,96.5046,VALID,0,VALID,18.699,VALID,135,VALID,0
2000-07-06, 00:19:00,VALID,917.668,VALID,0,VALID,96.7907,VALID,-0.0169808,VALID,18.7244,VALID,122,VALID,0
2000-07-06, 00:20:00,VALID,917.69,VALID,0,VALID,96.9153,VALID,0,VALID,18.7696,VALID,120,VALID,0
2000-07-06, 00:21:00,VALID,917.692,VALID,0,VALID,96.9827,VALID,0,VALID,18.8056,VALID,233,VALID,0
2000-07-06, 00:22:00,VALID,917.7,VALID,0,VALID,96.9827,VALID,-0.0169808,VALID,18.8356,VALID,285,VALID,0
2000-07-06, 00:23:00,VALID,917.692,VALID,0,VALID,97.0768,VALID,-0.0339617,VALID,18.8414,VALID,284,VALID,0
2000-07-06, 00:24:00,VALID,917.684,VALID,0,VALID,96.9179,VALID,-0.0169808,VALID,18.8485,VALID,264,VALID,0
2000-07-06, 00:25:00,VALID,917.673,VALID,0,VALID,96.75,VALID,0,VALID,18.825,VALID,257,VALID,0
2000-07-06, 00:26:00,VALID,917.651,VALID,0,VALID,96.9967,VALID,0,VALID,18.8384,VALID,218,VALID,0
2000-07-06, 00:27:00,VALID,917.639,VALID,0,VALID,97.0107,VALID,-0.0169808,VALID,18.8377,VALID,224,VALID,0
2000-07-06, 00:28:00,VALID,917.64,VALID,0,VALID,96.9675,VALID,0,VALID,18.8158,VALID,231,VALID,0
2000-07-06, 00:29:00,VALID,917.652,VALID,0,VALID,96.9675,VALID,0,VALID,18.8155,VALID,231,VALID,0
2000-07-06, 00:30:00,VALID,917.665,VALID,0,VALID,96.8276,VALID,0,VALID,18.8088,VALID,235,VALID,0
2000-07-06, 00:31:00,VALID,917.664,VALID,0,VALID,96.8314,VALID,-0.0169808,VALID,18.8162,VALID,236,VALID,0.451436
2000-07-06, 00:32:00,VALID,917.67,VALID,0,VALID,96.6623,VALID,0,VALID,18.8118,VALID,239,VALID,0.401367
2000-07-06, 00:33:00,VALID,917.674,VALID,0,VALID,96.5593,VALID,0,VALID,18.8185,VALID,240,VALID,0.221354
2000-07-06, 00:34:00,VALID,917.683,VALID,0,VALID,96.2808,VALID,0,VALID,18.8255,VALID,241,VALID,0.546875
2000-07-06, 00:35:00,VALID,917.67,VALID,0,VALID,96.1918,VALID,-0.0169808,VALID,18.8123,VALID,247,VALID,0.695313
2000-07-06, 00:36:00,VALID,917.669,VALID,0,VALID,95.8739,VALID,-0.0339617,VALID,18.8123,VALID,242,VALID,0.80037
2000-07-06, 00:37:00,VALID,917.648,VALID,0,VALID,95.6577,VALID,-0.0339617,VALID,18.7899,VALID,241,VALID,0.75641
2000-07-06, 00:38:00,VALID,917.635,VALID,0,VALID,95.7556,VALID,-0.0339617,VALID,18.7613,VALID,233,VALID,0.88125
2000-07-06, 00:39:00,VALID,917.633,VALID,0,VALID,96.0481,VALID,-0.0169808,VALID,18.7348,VALID,236,VALID,0.768159
2000-07-06, 00:40:00,VALID,917.649,VALID,0,VALID,96.2986,VALID,0,VALID,18.7189,VALID,236,VALID,0.858203
2000-07-06, 00:41:00,VALID,917.648,VALID,0,VALID,96.4372,VALID,-0.0339617,VALID,18.6965,VALID,239,VALID,0.604768
2000-07-06, 00:42:00,VALID,917.649,VALID,0,VALID,96.6063,VALID,-0.0339617,VALID,18.6607,VALID,229,VALID,0.0289885
2000-07-06, 00:43:00,VALID,917.648,VALID,0,VALID,96.8149,VALID,0,VALID,18.6448,VALID,226,VALID,0
2000-07-06, 00:44:00,VALID,917.635,VALID,0,VALID,97.0031,VALID,-0.0169808,VALID,18.6088,VALID,237,VALID,0.792146
2000-07-06, 00:45:00,VALID,917.638,VALID,0,VALID,97.148,VALID,0,VALID,18.5934,VALID,248,VALID,0.346755
2000-07-06, 00:46:00,VALID,917.63,VALID,0,VALID,97.2536,VALID,-0.0339617,VALID,18.544,VALID,226,VALID,0
2000-07-06, 00:47:00,VALID,917.616,VALID,0,VALID,97.2854,VALID,0,VALID,18.5444,VALID,217,VALID,0
2000-07-06, 00:48:00,VALID,917.609,VALID,0,VALID,97.232,VALID,-0.0169808,VALID,18.5156,VALID,219,VALID,0
2000-07-06, 00:49:00,VALID,917.605,VALID,0,VALID,97.1951,VALID,-0.0509425,VALID,18.493,VALID,219,VALID,0
2000-07-06, 00:50:00,VALID,917.598,VALID,0,VALID,97.2434,VALID,0,VALID,18.4796,VALID,219,VALID,0
2000-07-06, 00:51:00,VALID,917.588,VALID,0,VALID,97.354,VALID,-0.0169808,VALID,18.4704,VALID,219,VALID,0
2000-07-06, 00:52:00,VALID,917.592,VALID,0,VALID,97.4113,VALID,-0.0169808,VALID,18.4445,VALID,219,VALID,0
2000-07-06, 00:53:00,VALID,917.594,VALID,0,VALID,97.5779,VALID,0,VALID,18.4217,VALID,217,VALID,0
2000-07-06, 00:54:00,VALID,917.599,VALID,0,VALID,97.6681,VALID,-0.0169808,VALID,18.4215,VALID,212,VALID,0
2000-07-06, 00:55:00,VALID,917.619,VALID,0,VALID,97.6478,VALID,-0.0169808,VALID,18.4026,VALID,186,VALID,0
2000-07-06, 00:56:00,VALID,917.629,VALID,0,VALID,97.6109,VALID,-0.0169808,VALID,18.3737,VALID,179,VALID,0
2000-07-06, 00:57:00,VALID,917.616,VALID,0,VALID,97.6033,VALID,-0.0169808,VALID,18.3477,VALID,175,VALID,0
2000-07-06, 00:58:00,VALID,917.606,VALID,0,VALID,97.6325,VALID,0,VALID,18.3188,VALID,163,VALID,0
2000-07-06, 00:59:00,VALID,917.591,VALID,0,VALID,97.6224,VALID,-0.0169808,VALID,18.2734,VALID,161,VALID,0
2000-07-06, 01:00:00,VALID,917.587,VALID,0,VALID,97.5308,VALID,0,VALID,18.2307,VALID,159,VALID,0
2000-07-06, 01:01:00,VALID,917.584,VALID,0,VALID,97.5689,VALID,0,VALID,18.2019,VALID,161,VALID,0
2000-07-06, 01:02:00,VALID,917.585,VALID,0,VALID,97.6643,VALID,-0.0339617,VALID,18.1797,VALID,178,VALID,0
2000-07-06, 01:03:00,VALID,917.573,VALID,0,VALID,97.7292,VALID,-0.0339617,VALID,18.1633,VALID,156,VALID,0
2000-07-06, 01:04:00,VALID,917.549,VALID,0,VALID,97.7406,VALID,-0.0339617,VALID,18.1313,VALID,129,VALID,0
2000-07-06, 01:05:00,VALID,917.537,VALID,0,VALID,97.8144,VALID,0,VALID,18.1151,VALID,138,VALID,0
2000-07-06, 01:06:00,VALID,917.525,VALID,0,VALID,98.0127,VALID,0.0169808,VALID,18.1343,VALID,149,VALID,0
2000-07-06, 01:07:00,VALID,917.505,VALID,0,VALID,98.0153,VALID,0,VALID,18.1313,VALID,149,VALID,0
2000-07-06, 01:08:00,VALID,917.504,VALID,0,VALID,97.9911,VALID,0,VALID,18.1246,VALID,149,VALID,0
2000-07-06, 01:09:00,VALID,917.499,VALID,0,VALID,97.9695,VALID,-0.0339617,VALID,18.128,VALID,149,VALID,0
2000-07-06, 01:10:00,VALID,917.497,VALID,0,VALID,97.9479,VALID,-0.0339617,VALID,18.1218,VALID,149,VALID,0
2000-07-06, 01:11:00,VALID,917.508,VALID,0,VALID,98.0255,VALID,-0.0169808,VALID,18.1188,VALID,157,VALID,0
2000-07-06, 01:12:00,VALID,917.477,VALID,0,VALID,98.2658,VALID,-0.0339617,VALID,18.1476,VALID,158,VALID,0
2000-07-06, 01:13:00,VALID,917.459,VALID,0,VALID,98.248,VALID,0,VALID,18.1732,VALID,168,VALID,0
2000-07-06, 01:14:00,VALID,917.444,VALID,0,VALID,98.0878,VALID,-0.0169808,VALID,18.1442,VALID,166,VALID,0
2000-07-06, 01:15:00,VALID,917.427,VALID,0,VALID,97.9809,VALID,0,VALID,18.1218,VALID,163,VALID,0
2000-07-06, 01:16:00,VALID,917.412,VALID,0,VALID,97.9822,VALID,0,VALID,18.1089,VALID,163,VALID,0
2000-07-06, 01:17:00,VALID,917.393,VALID,0,VALID,98.0954,VALID,-0.0169808,VALID,18.1213,VALID,150,VALID,0
2000-07-06, 01:18:00,VALID,917.369,VALID,0,VALID,98.089,VALID,-0.0169808,VALID,18.1248,VALID,149,VALID,0
2000-07-06, 01:19:00,VALID,917.361,VALID,0,VALID,98.0738,VALID,0,VALID,18.1087,VALID,149,VALID,0
2000-07-06, 01:20:00,VALID,917.366,VALID,0,VALID,98.2556,VALID,-0.0169808,VALID,18.1407,VALID,153,VALID,0
2000-07-06, 01:21:00,VALID,917.347,VALID,0,VALID,98.3395,VALID,0,VALID,18.176,VALID,172,VALID,0
2000-07-06, 01:22:00,VALID,917.329,VALID,0,VALID,98.3052,VALID,0,VALID,18.2155,VALID,172,VALID,0
2000-07-06, 01:23:00,VALID,917.349,VALID,0,VALID,98.2671,VALID,0.0169808,VALID,18.2411,VALID,172,VALID,0
2000-07-06, 01:24:00,VALID,917.358,VALID,0,VALID,98.0776,VALID,0,VALID,18.2863,VALID,172,VALID,0
2000-07-06, 01:25:00,VALID,917.345,VALID,0,VALID,97.8907,VALID,0,VALID,18.3253,VALID,172,VALID,0
2000-07-06, 01:26:00,VALID,917.333,VALID,0,VALID,97.5995,VALID,0,VALID,18.3606,VALID,172,VALID,0
2000-07-06, 01:27:00,VALID,917.302,VALID,0,VALID,97.2269,VALID,0,VALID,18.3802,VALID,172,VALID,0
2000-07-06, 01:28:00,VALID,917.283,VALID,0,VALID,96.9713,VALID,-0.0169808,VALID,18.3896,VALID,172,VALID,0
2000-07-06, 01:29:00,VALID,917.255,VALID,0,VALID,96.8047,VALID,0,VALID,18.3963,VALID,172,VALID,0
2000-07-06, 01:30:00,VALID,917.248,VALID,0,VALID,96.5796,VALID,0,VALID,18.4122,VALID,172,VALID,0
2000-07-06, 01:31:00,VALID,917.226,VALID,0,VALID,96.324,VALID,-0.0169808,VALID,18.4194,VALID,172,VALID,0
2000-07-06, 01:32:00,VALID,917.195,VALID,0,VALID,96.1676,VALID,0,VALID,18.4125,VALID,172,VALID,0
2000-07-06, 01:33:00,VALID,917.174,VALID,0,VALID,96.1448,VALID,0,VALID,18.38,VALID,201,VALID,0
2000-07-06, 01:34:00,VALID,917.14,VALID,0,VALID,96.1346,VALID,0,VALID,18.3576,VALID,211,VALID,0
2000-07-06, 01:35:00,VALID,917.12,VALID,0,VALID,96.0863,VALID,0,VALID,18.3477,VALID,209,VALID,0
2000-07-06, 01:36:00,VALID,917.095,VALID,0,VALID,95.823,VALID,0,VALID,18.3444,VALID,214,VALID,0
2000-07-06, 01:37:00,VALID,917.076,VALID,0,VALID,95.659,VALID,0.0169808,VALID,18.3869,VALID,211,VALID,0
2000-07-06, 01:38:00,VALID,917.095,VALID,0,VALID,95.6844,VALID,0,VALID,18.3963,VALID,211,VALID,0
2000-07-06, 01:39:00,VALID,917.115,VALID,0,VALID,95.8981,VALID,0,VALID,18.3896,VALID,213,VALID,0
2000-07-06, 01:40:00,VALID,917.119,VALID,0,VALID,95.9413,VALID,0,VALID,18.3705,VALID,228,VALID,0
2000-07-06, 01:41:00,VALID,917.121,VALID,0,VALID,96.113,VALID,0,VALID,18.3444,VALID,215,VALID,0.260417
2000-07-06, 01:42:00,VALID,917.119,VALID,0,VALID,96.3075,VALID,0,VALID,18.3278,VALID,202,VALID,0.541211
2000-07-06, 01:43:00,VALID,917.122,VALID,0,VALID,96.4143,VALID,0.0339617,VALID,18.3313,VALID,195,VALID,0.100296
2000-07-06, 01:44:00,VALID,917.146,VALID,0,VALID,96.4754,VALID,0,VALID,18.3246,VALID,194,VALID,0
2000-07-06, 01:45:00,VALID,917.172,VALID,0,VALID,96.3609,VALID,0,VALID,18.3052,VALID,194,VALID,0
2000-07-06, 01:46:00,VALID,917.188,VALID,0,VALID,96.3126,VALID,0.0169808,VALID,18.2837,VALID,194,VALID,0
2000-07-06, 01:47:00,VALID,917.193,VALID,0,VALID,96.4309,VALID,0,VALID,18.2538,VALID,194,VALID,0
2000-07-06, 01:48:00,VALID,917.2,VALID,0,VALID,96.4677,VALID,0,VALID,18.2314,VALID,194,VALID,0
2000-07-06, 01:49:00,VALID,917.185,VALID,0,VALID,96.5135,VALID,0,VALID,18.1896,VALID,194,VALID,0
2000-07-06, 01:50:00,VALID,917.188,VALID,0,VALID,96.6966,VALID,0.0339617,VALID,18.1804,VALID,194,VALID,0
2000-07-06, 01:51:00,VALID,917.19,VALID,0,VALID,96.9077,VALID,0,VALID,18.1541,VALID,194,VALID,0
2000-07-06, 01:52:00,VALID,917.177,VALID,0,VALID,97.2027,VALID,0,VALID,18.1474,VALID,194,VALID,0
2000-07-06, 01:53:00,VALID,917.169,VALID,0,VALID,97.3566,VALID,-0.0169808,VALID,18.1539,VALID,194,VALID,0
2000-07-06, 01:54:00,VALID,917.156,VALID,0,VALID,97.4367,VALID,0,VALID,18.1444,VALID,194,VALID,0
2000-07-06, 01:55:00,VALID,917.153,VALID,0,VALID,97.4787,VALID,0.0169808,VALID,18.1345,VALID,194,VALID,0
2000-07-06, 01:56:00,VALID,917.124,VALID,0,VALID,97.5168,VALID,0,VALID,18.1218,VALID,194,VALID,0
2000-07-06, 01:57:00,VALID,917.101,VALID,0,VALID,97.5397,VALID,-0.0339617,VALID,18.1054,VALID,194,VALID,0
2000-07-06, 01:58:00,VALID,917.104,VALID,0,VALID,97.5524,VALID,-0.0339617,VALID,18.0865,VALID,194,VALID,0
2000-07-06, 01:59:00,VALID,917.104,VALID,0,VALID,97.6707,VALID,-0.0339617,VALID,18.0736,VALID,194,VALID,0
2000-07-06, 02:00:00,VALID,917.129,VALID,0,VALID,97.6592,VALID,-0.0339617,VALID,18.0538,VALID,194,VALID,0
2000-07-06, 02:01:00,VALID,917.127,VALID,0,VALID,97.7241,VALID,-0.0169808,VALID,18.0547,VALID,180,VALID,0.0803285
2000-07-06, 02:02:00,VALID,917.125,VALID,0,VALID,97.7877,VALID,0,VALID,18.0182,VALID,81,VALID,0.374794
2000-07-06, 02:03:00,VALID,917.13,VALID,0,VALID,97.7737,VALID,0,VALID,17.9991,VALID,132,VALID,0.211538
2000-07-06, 02:04:00,VALID,917.124,VALID,0,VALID,97.7826,VALID,0,VALID,17.97,VALID,153,VALID,0.482319
2000-07-06, 02:05:00,VALID,917.136,VALID,0,VALID,97.8207,VALID,0,VALID,17.9571,VALID,148,VALID,0.513822
2000-07-06, 02:06:00,VALID,917.134,VALID,0,VALID,97.8258,VALID,-0.0169808,VALID,17.9446,VALID,148,VALID,0.426953
2000-07-06, 02:07:00,VALID,917.15,VALID,0,VALID,97.8818,VALID,-0.0169808,VALID,17.9347,VALID,138,VALID,0.500211
2000-07-06, 02:08:00,VALID,917.131,VALID,0,VALID,97.9237,VALID,-0.0339617,VALID,17.9317,VALID,134,VALID,0.422656
2000-07-06, 02:09:00,VALID,917.131,VALID,0,VALID,97.9136,VALID,-0.0169808,VALID,17.9181,VALID,134,VALID,0.00741186
2000-07-06, 02:10:00,VALID,917.134,VALID,0,VALID,97.9949,VALID,-0.0169808,VALID,17.9543,VALID,134,VALID,0
2000-07-06, 02:11:00,VALID,917.144,VALID,0,VALID,97.9301,VALID,-0.0339617,VALID,17.9998,VALID,122,VALID,0.530849
2000-07-06, 02:12:00,VALID,917.149,VALID,0,VALID,97.5562,VALID,-0.0169808,VALID,18.1126,VALID,112,VALID,0.377878
2000-07-06, 02:13:00,VALID,917.177,VALID,0,VALID,96.895,VALID,0,VALID,18.1968,VALID,113,VALID,0
2000-07-06, 02:14:00,VALID,917.16,VALID,0,VALID,96.4296,VALID,-0.0509425,VALID,18.2644,VALID,123,VALID,0
2000-07-06, 02:15:00,VALID,917.155,VALID,0,VALID,96.0087,VALID,-0.0339617,VALID,18.2803,VALID,124,VALID,0
2000-07-06, 02:16:00,VALID,917.145,VALID,0,VALID,95.7696,VALID,-0.0169808,VALID,18.2736,VALID,124,VALID,0
2000-07-06, 02:17:00,VALID,917.133,VALID,0,VALID,95.6399,VALID,-0.0339617,VALID,18.2773,VALID,126,VALID,0
2000-07-06, 02:18:00,VALID,917.121,VALID,0,VALID,95.3843,VALID,-0.0509425,VALID,18.293,VALID,137,VALID,0
2000-07-06, 02:19:00,VALID,917.092,VALID,0,VALID,95.1656,VALID,-0.0509425,VALID,18.3223,VALID,137,VALID,0
2000-07-06, 02:20:00,VALID,917.083,VALID,0,VALID,95.0575,VALID,-0.0509425,VALID,18.3451,VALID,137,VALID,0
2000-07-06, 02:21:00,VALID,917.065,VALID,0,VALID,94.8553,VALID,-0.0849042,VALID,18.3903,VALID,137,VALID,0
2000-07-06, 02:22:00,VALID,917.056,VALID,0,VALID,94.7905,VALID,-0.0339617,VALID,18.4383,VALID,137,VALID,0
2000-07-06, 02:23:00,VALID,917.044,VALID,0,VALID,94.7333,VALID,-0.0339617,VALID,18.4224,VALID,137,VALID,0
2000-07-06, 02:24:00,VALID,917.017,VALID,0,VALID,94.6239,VALID,-0.0339617,VALID,18.3804,VALID,139,VALID,0
2000-07-06, 02:25:00,VALID,917.007,VALID,0,VALID,94.8388,VALID,-0.0509425,VALID,18.3163,VALID,139,VALID,0
2000-07-06, 02:26:00,VALID,917.008,VALID,0,VALID,95.4301,VALID,-0.0169808,VALID,18.2775,VALID,115,VALID,0.203536
2000-07-06, 02:27:00,VALID,916.988,VALID,0,VALID,95.5738,VALID,-0.0339617,VALID,18.2805,VALID,126,VALID,0
2000-07-06, 02:28:00,VALID,916.964,VALID,0,VALID,95.4555,VALID,0,VALID,18.3059,VALID,157,VALID,0
2000-07-06, 02:29:00,VALID,916.936,VALID,0,VALID,95.2928,VALID,-0.0509425,VALID,18.3511,VALID,144,VALID,0
2000-07-06, 02:30:00,VALID,916.898,VALID,0,VALID,94.9876,VALID,-0.0509425,VALID,18.406,VALID,129,VALID,0
2000-07-06, 02:31:00,VALID,916.894,VALID,0,VALID,94.8528,VALID,-0.0339617,VALID,18.4226,VALID,126,VALID,0
2000-07-06, 02:32:00,VALID,916.881,VALID,0,VALID,94.8846,VALID,-0.0509425,VALID,18.3903,VALID,126,VALID,0
2000-07-06, 02:33:00,VALID,916.882,VALID,0,VALID,95.1351,VALID,-0.0339617,VALID,18.3546,VALID,125,VALID,0
2000-07-06, 02:34:00,VALID,916.875,VALID,0,VALID,95.4123,VALID,-0.0169808,VALID,18.3583,VALID,123,VALID,0
2000-07-06, 02:35:00,VALID,916.858,VALID,0,VALID,95.495,VALID,-0.0169808,VALID,18.3481,VALID,123,VALID,0
2000-07-06, 02:36:00,VALID,916.838,VALID,0,VALID,95.5064,VALID,-0.0169808,VALID,18.3352,VALID,120,VALID,0
2000-07-06, 02:37:00,VALID,916.827,VALID,0,VALID,95.6119,VALID,0,VALID,18.3285,VALID,53,VALID,0
2000-07-06, 02:38:00,VALID,916.829,VALID,0,VALID,95.5802,VALID,-0.0169808,VALID,18.3513,VALID,44,VALID,0
2000-07-06, 02:39:00,VALID,916.844,VALID,0,VALID,95.6514,VALID,-0.0169808,VALID,18.3652,VALID,335,VALID,0
2000-07-06, 02:40:00,VALID,916.834,VALID,0,VALID,96.1549,VALID,-0.0339617,VALID,18.3546,VALID,290,VALID,0
2000-07-06, 02:41:00,VALID,916.786,VALID,0,VALID,96.4118,VALID,0,VALID,18.3737,VALID,245,VALID,0
2000-07-06, 02:42:00,VALID,916.766,VALID,0,VALID,96.3291,VALID,-0.0339617,VALID,18.3802,VALID,220,VALID,0
2000-07-06, 02:43:00,VALID,916.755,VALID,0,VALID,96.1422,VALID,0.0169808,VALID,18.3509,VALID,220,VALID,0
2000-07-06, 02:44:00,VALID,916.759,VALID,0,VALID,96.1041,VALID,-0.0339617,VALID,18.332,VALID,220,VALID,0
2000-07-06, 02:45:00,VALID,916.77,VALID,0,VALID,96.0952,VALID,-0.0339617,VALID,18.3091,VALID,175,VALID,0
2000-07-06, 02:46:00,VALID,916.762,VALID,0,VALID,96.0786,VALID,-0.0339617,VALID,18.3001,VALID,147,VALID,0
2000-07-06, 02:47:00,VALID,916.77,VALID,0,VALID,96.0468,VALID,-0.0509425,VALID,18.2807,VALID,159,VALID,0
2000-07-06, 02:48:00,VALID,916.794,VALID,0,VALID,96.2325,VALID,-0.0509425,VALID,18.2609,VALID,171,VALID,0
2000-07-06, 02:49:00,VALID,916.799,VALID,0,VALID,96.2338,VALID,-0.0169808,VALID,18.2316,VALID,170,VALID,0
2000-07-06, 02:50:00,VALID,916.781,VALID,0,VALID,96.1397,VALID,-0.0509425,VALID,18.2162,VALID,169,VALID,0
2000-07-06, 02:51:00,VALID,916.771,VALID,0,VALID,96.174,VALID,-0.0509425,VALID,18.1968,VALID,169,VALID,0
2000-07-06, 02:52:00,VALID,916.738,VALID,0,VALID,96.1867,VALID,-0.0509425,VALID,18.1451,VALID,169,VALID,0
2000-07-06, 02:53:00,VALID,916.726,VALID,0,VALID,96.394,VALID,-0.0169808,VALID,18.1126,VALID,169,VALID,0
2000-07-06, 02:54:00,VALID,916.735,VALID,0,VALID,96.6686,VALID,-0.0339617,VALID,18.1255,VALID,169,VALID,0
2000-07-06, 02:55:00,VALID,916.755,VALID,0,VALID,96.7399,VALID,-0.0509425,VALID,18.1121,VALID,169,VALID,0
2000-07-06, 02:56:00,VALID,916.756,VALID,0,VALID,96.7844,VALID,-0.0169808,VALID,18.1091,VALID,169,VALID,0
2000-07-06, 02:57:00,VALID,916.758,VALID,0,VALID,96.8034,VALID,0,VALID,18.0927,VALID,167,VALID,0
2000-07-06, 02:58:00,VALID,916.763,VALID,0,VALID,96.9166,VALID,-0.0169808,VALID,18.093,VALID,159,VALID,0.0104852
2000-07-06, 02:59:00,VALID,916.754,VALID,0,VALID,96.9688,VALID,-0.0169808,VALID,18.0891,VALID,8,VALID,0.387821
2000-07-06, 03:00:00,VALID,916.761,VALID,0,VALID,96.9624,VALID,-0.0339617,VALID,18.0861,VALID,297,VALID,0
2000-07-06, 03:01:00,VALID,916.744,VALID,0,VALID,97.0285,VALID,-0.0169808,VALID,18.0861,VALID,167,VALID,0
2000-07-06, 03:02:00,VALID,916.746,VALID,0,VALID,96.942,VALID,0,VALID,18.093,VALID,112,VALID,0
2000-07-06, 03:03:00,VALID,916.728,VALID,0,VALID,97.0107,VALID,-0.0339617,VALID,18.0927,VALID,184,VALID,0
2000-07-06, 03:04:00,VALID,916.726,VALID,0,VALID,97.1544,VALID,-0.0169808,VALID,18.1059,VALID,186,VALID,0
2000-07-06, 03:05:00,VALID,916.733,VALID,0,VALID,97.3362,VALID,-0.0169808,VALID,18.128,VALID,175,VALID,0
2000-07-06, 03:06:00,VALID,916.72,VALID,0,VALID,97.4036,VALID,0,VALID,18.2353,VALID,170,VALID,0.844778
2000-07-06, 03:07:00,VALID,916.696,VALID,0,VALID,96.7259,VALID,0,VALID,18.3832,VALID,60,VALID,0.597957
2000-07-06, 03:08:00,VALID,916.71,VALID,0,VALID,95.8574,VALID,0,VALID,18.4704,VALID,83,VALID,0.0456414
2000-07-06, 03:09:00,VALID,916.701,VALID,0,VALID,95.6145,VALID,-0.0169808,VALID,18.5032,VALID,181,VALID,0
2000-07-06, 03:10:00,VALID,916.68,VALID,0,VALID,95.4517,VALID,0,VALID,18.5161,VALID,186,VALID,0
2000-07-06, 03:11:00,VALID,916.666,VALID,0,VALID,95.2648,VALID,0,VALID,18.5188,VALID,92,VALID,0.28484
2000-07-06, 03:12:00,VALID,916.658,VALID,0,VALID,95.4225,VALID,-0.0509425,VALID,18.526,VALID,118,VALID,0.0123047
2000-07-06, 03:13:00,VALID,916.649,VALID,0,VALID,95.3068,VALID,-0.0169808,VALID,18.5384,VALID,113,VALID,0.328526
2000-07-06, 03:14:00,VALID,916.664,VALID,0,VALID,95.1389,VALID,-0.0169808,VALID,18.5678,VALID,150,VALID,0.170641
2000-07-06, 03:15:00,VALID,916.64,VALID,0,VALID,95.1046,VALID,-0.0169808,VALID,18.5643,VALID,148,VALID,0
2000-07-06, 03:16:00,VALID,916.645,VALID,0,VALID,95.1147,VALID,-0.0169808,VALID,18.5744,VALID,137,VALID,0.159951
2000-07-06, 03:17:00,VALID,916.641,VALID,0,VALID,95.0334,VALID,-0.0169808,VALID,18.5613,VALID,178,VALID,0.285256
2000-07-06, 03:18:00,VALID,916.647,VALID,0,VALID,95.2012,VALID,-0.0509425,VALID,18.5645,VALID,293,VALID,0
2000-07-06, 03:19:00,VALID,916.663,VALID,0,VALID,95.2559,VALID,-0.0679233,VALID,18.5871,VALID,243,VALID,0
2000-07-06, 03:20:00,VALID,916.67,VALID,0,VALID,95.0639,VALID,-0.0509425,VALID,18.5938,VALID,235,VALID,0
2000-07-06, 03:21:00,VALID,916.677,VALID,0,VALID,94.8655,VALID,-0.0339617,VALID,18.568,VALID,153,VALID,0
2000-07-06, 03:22:00,VALID,916.681,VALID,0,VALID,94.7193,VALID,-0.0169808,VALID,18.5357,VALID,124,VALID,0
2000-07-06, 03:23:00,VALID,916.694,VALID,0,VALID,95.0486,VALID,-0.0339617,VALID,18.4969,VALID,115,VALID,0
2000-07-06, 03:24:00,VALID,916.698,VALID,0,VALID,95.2267,VALID,-0.0169808,VALID,18.4898,VALID,110,VALID,0
2000-07-06, 03:25:00,VALID,916.682,VALID,0,VALID,95.4403,VALID,-0.0169808,VALID,18.4833,VALID,115,VALID,0
2000-07-06, 03:26:00,VALID,916.674,VALID,0,VALID,95.4288,VALID,-0.0169808,VALID,18.4803,VALID,137,VALID,0
2000-07-06, 03:27:00,VALID,916.685,VALID,0,VALID,95.3614,VALID,-0.0169808,VALID,18.4771,VALID,133,VALID,0
2000-07-06, 03:28:00,VALID,916.704,VALID,0,VALID,95.3996,VALID,-0.0509425,VALID,18.4639,VALID,140,VALID,0
2000-07-06, 03:29:00,VALID,916.703,VALID,0,VALID,95.4759,VALID,-0.0509425,VALID,18.4642,VALID,125,VALID,0
2000-07-06, 03:30:00,VALID,916.712,VALID,0,VALID,95.3551,VALID,-0.0509425,VALID,18.451,VALID,127,VALID,0
2000-07-06, 03:31:00,VALID,916.737,VALID,0,VALID,95.2991,VALID,-0.0169808,VALID,18.4388,VALID,160,VALID,0
2000-07-06, 03:32:00,VALID,916.755,VALID,0,VALID,95.3475,VALID,-0.0339617,VALID,18.4226,VALID,166,VALID,0
2000-07-06, 03:33:00,VALID,916.767,VALID,0,VALID,95.4339,VALID,-0.0169808,VALID,18.4259,VALID,135,VALID,0
2000-07-06, 03:34:00,VALID,916.759,VALID,0,VALID,95.6069,VALID,-0.0169808,VALID,18.4381,VALID,153,VALID,0
2000-07-06, 03:35:00,VALID,916.771,VALID,0,VALID,95.5407,VALID,-0.0169808,VALID,18.4256,VALID,161,VALID,0
2000-07-06, 03:36:00,VALID,916.772,VALID,0,VALID,95.5547,VALID,-0.0509425,VALID,18.4097,VALID,137,VALID,0
2000-07-06, 03:37:00,VALID,916.791,VALID,0,VALID,95.4466,VALID,-0.0169808,VALID,18.3834,VALID,101,VALID,0.613982
2000-07-06, 03:38:00,VALID,916.778,VALID,0,VALID,95.7417,VALID,-0.0339617,VALID,18.3806,VALID,98,VALID,0.0550987
2000-07-06, 03:39:00,VALID,916.8,VALID,0,VALID,95.8828,VALID,-0.0339617,VALID,18.3576,VALID,152,VALID,0
2000-07-06, 03:40:00,VALID,916.825,VALID,0,VALID,95.9388,VALID,-0.0679233,VALID,18.3479,VALID,165,VALID,0
2000-07-06, 03:41:00,VALID,916.826,VALID,0,VALID,95.9273,VALID,0.0509425,VALID,18.3373,VALID,110,VALID,0.522236
2000-07-06, 03:42:00,VALID,916.804,VALID,0,VALID,95.715,VALID,0.0169808,VALID,18.3052,VALID,113,VALID,0.37207
2000-07-06, 03:43:00,VALID,916.811,VALID,0,VALID,95.879,VALID,0.0679233,VALID,18.2533,VALID,137,VALID,0
2000-07-06, 03:44:00,VALID,916.803,VALID,0,VALID,96.2846,VALID,0.0509425,VALID,18.2402,VALID,166,VALID,0.0568359
2000-07-06, 03:45:00,VALID,916.826,VALID,0,VALID,96.4715,VALID,0.0509425,VALID,18.2302,VALID,194,VALID,0.124599